• Processing (Info)

  • MPEC 2010-G23 : 2010 GA6

    The following Minor Planet Electronic Circular may be linked-to from your own Web pages, but must not otherwise be redistributed electronically.

    A form allowing access to any MPEC is at the bottom of this page.


    Read MPEC 2010-G22 Read MPEC 2010-G24


    M.P.E.C. 2010-G23                                Issued 2010 Apr. 5, 16:22 UT
    
         The Minor Planet Electronic Circulars contain information on unusual
             minor planets and routine data on comets.  They are published
       on behalf of Commission 20 of the International Astronomical Union by the
              Minor Planet Center, Smithsonian Astrophysical Observatory,
                              Cambridge, MA 02138, U.S.A.
    
                 Prepared using the Tamkin Foundation Computer Network
    
                                  MPC@CFA.HARVARD.EDU
           URL https://www.minorplanetcenter.org/iau/mpc.html  ISSN 1523-6714
    
                                       2010 GA6
    
    Observations:
         K10G06A* C2010 04 05.16553 10 00 54.25 -16 24 38.5          18.8 V EG023703
         K10G06A  C2010 04 05.17125 10 00 52.99 -16 24 08.8          19.2 V EG023703
         K10G06A  C2010 04 05.17698 10 00 51.94 -16 23 38.9          19.5 V EG023703
         K10G06A  C2010 04 05.18275 10 00 50.76 -16 23 08.3          19.6 V EG023703
         K10G06A  C2010 04 05.24175 10 00 38.80 -16 17 39.4          18.8 V EG023703
         K10G06A  C2010 04 05.24255 10 00 38.70 -16 17 35.5          18.6 V EG023703
         K10G06A  C2010 04 05.24333 10 00 38.59 -16 17 30.0          19.1 V EG023703
         K10G06A  C2010 04 05.24413 10 00 38.44 -16 17 25.0          19.5 V EG023703
         K10G06A  C2010 04 05.27848 10 00 31.66 -16 13 59.2          20.3 R EG023651
         K10G06A  C2010 04 05.28175 10 00 31.06 -16 13 40.9          20.5 R EG023651
         K10G06A  C2010 04 05.30206 10 00 27.34 -16 11 36.6          18.8 R EG023926
         K10G06A  C2010 04 05.30383 10 00 27.01 -16 11 25.2          19.8 R EG023926
         K10G06A  C2010 04 05.30560 10 00 26.71 -16 11 15.0          19.2 R EG023926
    
    Observer details:
    651 Grasslands Observatory, Tucson.  Observer J. E. McGaha.  0.62-m f/5.1
        Newtonian reflector + CCD.
    703 Catalina Sky Survey.  Observer A. Boattini.  Measurers J. D. Ahern,
        E. C. Beshore, A. Boattini, G. J. Garradd, A. R. Gibbs, A. D. Grauer,
        R. E. Hill, R. A. Kowalski, S. M. Larson, R. H. McNaught.  0.68-m Schmidt
        + CCD.
    926 Tenagra II Observatory.  Observers P. R. Holvorcem, M. Schwartz.  Measurer
        P. R. Holvorcem.  0.81-m f/7 Ritchey-Chretien + CCD.
    
    Orbital elements:
    2010 GA6                                                 Earth MOID = 0.0018 AU
    Epoch 2010 July 23.0 TT = JDT 2455400.5                 MPC
    M  27.76031              (2000.0)            P               Q
    n   0.34778089     Peri.   32.71649     -0.63392039     +0.77191970
    a   2.0026216      Node   198.09159     -0.73855511     -0.62254603
    e   0.5262058      Incl.    8.85471     -0.22952407     -0.12874944
    P   2.83           H   26.0           G   0.15           U   7
    Residuals in seconds of arc
    100405 703  1.0+  1.3+    100405 703  0.2-  0.1-    100405 926  0.0   0.5+
    100405 703  0.8-  0.8+    100405 703  0.4+  0.9+    100405 926  0.2-  1.0+
    100405 703  0.6+  0.3+    100405 703  0.6+  1.3+    100405 926  0.0   0.3+
    100405 703  0.2+  0.0     100405 651  0.7+  1.6+
    100405 703  1.0-  0.6+    100405 651  1.0+  0.3+
    
    Ephemeris:
    2010 GA6                 a,e,i = 2.00, 0.53, 9                   q = 0.9488
    Date    TT    R. A. (2000) Decl.     Delta      r     Elong.  Phase     V
    2010 04 04.0  10 01.84   -17 40.4    0.0310   1.023   136.8    42.0    20.1
    2010 04 04.5  10 01.46   -17 11.1    0.0279   1.021   136.5    42.4    19.9
    2010 04 05.0  10 01.02   -16 34.4    0.0248   1.018   136.1    42.9    19.7
    2010 04 05.5  10 00.48   -15 47.1    0.0217   1.016   135.7    43.4    19.4
    2010 04 06.0  09 59.78   -14 43.8    0.0186   1.014   135.3    44.0    19.1
    2010 04 06.5  09 58.85   -13 15.2    0.0155   1.012   134.8    44.6    18.7
    2010 04 07.0  09 57.51   -11 03.1    0.0124   1.010   134.2    45.3    18.2
    2010 04 07.5  09 55.34   -07 21.4    0.00939  1.007   133.2    46.5    17.6
    2010 04 08.0  09 51.23   -00 10.2    0.00643  1.005   130.9    48.8    16.9
    2010 04 08.5  09 40.66   +17 51.8    0.00372  1.003   123.0    56.8    15.9
    2010 04 09.0  08 00.40   +73 02.6    0.00241  1.001    86.6    93.3    16.2
    2010 04 09.5  22 39.13   +55 43.4    0.00417  0.999    56.7   123.1    19.2
    2010 04 10.0  22 19.50   +41 02.7    0.00696  0.997    50.9   128.8    20.8
    2010 04 10.5  22 13.87   +34 54.3    0.00994  0.995    49.5   130.1    21.7
    2010 04 11.0  22 11.23   +31 36.8    0.0130   0.994    49.1   130.3    22.3
    2010 04 11.5  22 09.71   +29 34.5    0.0161   0.992    49.1   130.2    22.7
    2010 04 12.0  22 08.73   +28 11.5    0.0192   0.990    49.2   129.9    23.1
    2010 04 12.5  22 08.06   +27 11.4    0.0222   0.988    49.4   129.6    23.4
    2010 04 13.0  22 07.59   +26 26.0    0.0253   0.986    49.7   129.2    23.6
    2010 04 13.5  22 07.24   +25 50.4    0.0284   0.985    50.0   128.7    23.8
    
    Timothy B. Spahr             (C) Copyright 2010 MPC           M.P.E.C. 2010-G23
    

    Read MPEC 2010-G22 Read MPEC 2010-G24


    MPEC number:

    Enter an MPEC number in one of the following forms:

    • 1997-B01 (the full form)
    • J97B01 (the packed version of the full form)
    • B01 (the abbreviated form)